Date String (YYYY-MM-DD hh:mm:ss) UTC,Instrument flags,absolute air pressure of the measurement (hPa),sample flow rate (lpm),inlet stack bypass flow (lpm),air temperature of the measurement (°C),ambient temperature measured by the external sensor (°C),aerosol sample conditioner tube jacket temperature (°C),OPC LED temperature (°C),internal box temperature (°C),relative humidity of the measurement (%),span deviation,mass concentration of particles derived from Lorenz-Mie calculation of OPC scattering (μg/m³),mass concentration of particles derived from Lorenz-Mie calculation of OPC scattering (μg/m³),mass concentration of particles derived from Lorenz-Mie calculation of OPC scattering (μg/m³)
DateTimeUTC,F1_M11,P_M11,Q1_M11,Q2_M11,T1_M11,T2_M11,T3_M11,T4_M11,T5_M11,U1_M11,ZSPAN_M11,X0_M11,X2_M11,X1_M11
2024-06-18 04:00:00,SystemResetWarning,0813.9,5.01,000.00,029.0,026.0,000.0,037.9,029.9,010.2,0000.0,0021.83,0003.71,0001.99
2024-06-18 04:01:00,SystemResetWarning,0813.9,5.00,000.00,028.9,026.5,000.0,037.8,030.2,010.2,0000.0,0019.66,0003.68,0001.99
2024-06-18 04:02:00,SystemResetWarning,0813.9,5.00,000.00,029.0,026.9,000.0,037.7,030.4,010.3,0000.0,0017.52,0003.60,0001.99
2024-06-18 04:03:00,SystemResetWarning,0814.0,5.00,000.00,029.0,027.4,000.0,037.6,030.6,010.2,0000.0,0015.15,0003.58,0001.99
2024-06-18 04:04:00,SystemResetWarning,0813.9,4.99,000.00,029.1,027.7,000.0,037.6,030.8,010.2,0000.0,0013.52,0003.58,0001.99
2024-06-18 04:05:00,SystemResetWarning,0813.9,5.00,000.00,029.1,028.1,000.0,037.6,030.9,010.2,0000.0,0011.92,0003.49,0001.98
2024-06-18 04:06:00,SystemResetWarning,0814.0,5.00,000.00,029.2,028.3,000.0,037.6,031.0,010.1,0000.0,0009.88,0003.45,0001.97
2024-06-18 04:07:00,SystemResetWarning,0814.0,5.00,000.00,029.3,028.5,000.0,037.6,031.1,010.0,0000.0,0009.78,0003.51,0001.99
2024-06-18 04:08:00,SystemResetWarning,0814.1,5.02,000.00,029.3,028.7,000.0,037.6,031.2,010.0,0000.0,0009.89,0003.49,0002.00
2024-06-18 04:09:00,SystemResetWarning,0814.0,5.00,000.00,029.4,028.9,000.0,037.7,031.3,010.0,0000.0,0010.51,0003.47,0002.00
2024-06-18 04:10:00,SystemResetWarning,0814.1,4.98,000.00,029.5,029.0,000.0,037.7,031.3,009.9,0000.0,0010.95,0003.52,0002.00
2024-06-18 04:11:00,SystemResetWarning,0814.1,5.00,000.00,029.5,029.1,000.0,037.7,031.4,009.9,0000.0,0010.47,0003.51,0002.01
2024-06-18 04:12:00,SystemResetWarning,0814.1,5.01,000.00,029.6,029.2,000.0,037.7,031.5,009.9,0000.0,0010.81,0003.51,0002.01
2024-06-18 04:13:00,SystemResetWarning,0814.2,5.01,000.00,029.7,029.3,000.0,037.8,031.5,009.9,0000.0,0012.30,0003.55,0002.03
2024-06-18 04:14:00,SystemResetWarning,0814.2,4.99,000.00,029.7,029.4,000.0,037.8,031.6,009.9,0000.0,0012.22,0003.51,0002.01
2024-06-18 04:15:00,SystemResetWarning,0814.2,4.98,000.00,029.8,029.5,000.0,037.9,031.7,009.8,0000.0,0013.20,0003.45,0002.01
2024-06-18 04:16:00,SystemResetWarning,0814.1,5.00,000.00,029.9,029.5,000.0,037.9,031.8,009.8,0000.0,0013.83,0003.41,0001.99
2024-06-18 04:17:00,SystemResetWarning,0814.1,5.00,000.00,029.9,029.3,000.0,038.0,031.6,009.8,0000.0,0013.69,0003.40,0001.99
2024-06-18 04:18:00,SystemResetWarning,0814.1,5.00,000.00,029.6,026.9,000.0,038.0,030.4,010.0,0000.0,0013.42,0003.34,0001.98
2024-06-18 04:19:00,SystemResetWarning,0813.9,5.01,000.00,029.2,025.4,000.0,038.0,029.7,010.3,0000.0,0015.10,0003.32,0001.97
2024-06-18 04:20:00,SystemResetWarning,0813.9,5.01,000.00,029.0,025.9,000.0,037.9,029.8,010.4,0000.0,0014.62,0003.32,0001.98
2024-06-18 04:21:00,SystemResetWarning,0813.9,4.99,000.00,029.0,026.4,000.0,037.8,030.1,010.3,0000.0,0013.97,0003.25,0001.97
2024-06-18 04:22:00,SystemResetWarning,0814.1,5.00,000.00,029.0,026.9,000.0,037.7,030.4,010.3,0000.0,0013.98,0003.26,0001.97
2024-06-18 04:23:00,SystemResetWarning,0814.2,5.00,000.00,029.0,027.3,000.0,037.7,030.6,010.4,0000.0,0013.86,0003.25,0001.96
2024-06-18 04:24:00,SystemResetWarning,0814.2,5.00,000.00,029.1,027.7,000.0,037.6,030.7,010.4,0000.0,0012.54,0003.19,0001.95
2024-06-18 04:25:00,SystemResetWarning,0814.2,5.00,000.00,029.1,028.0,000.0,037.6,030.9,010.4,0000.0,0012.45,0003.18,0001.95
2024-06-18 04:26:00,SystemResetWarning,0814.2,5.00,000.00,029.2,028.2,000.0,037.6,031.0,010.3,0000.0,0011.20,0003.21,0001.95
2024-06-18 04:27:00,SystemResetWarning,0814.1,4.99,000.00,029.3,028.4,000.0,037.6,031.1,010.3,0000.0,0010.78,0003.24,0001.97
2024-06-18 04:28:00,SystemResetWarning,0814.1,4.99,000.00,029.3,028.6,000.0,037.6,031.2,010.2,0000.0,0010.90,0003.25,0001.97
2024-06-18 04:29:00,SystemResetWarning,0814.1,5.00,000.00,029.4,028.8,000.0,037.7,031.3,010.2,0000.0,0011.07,0003.27,0001.98
2024-06-18 04:30:00,SystemResetWarning,0814.1,5.00,000.00,029.5,029.0,000.0,037.7,031.3,010.2,0000.0,0009.82,0003.29,0001.98
2024-06-18 04:31:00,SystemResetWarning,0814.1,5.00,000.00,029.5,029.1,000.0,037.7,031.4,010.2,0000.0,0009.18,0003.27,0001.96
2024-06-18 04:32:00,SystemResetWarning,0814.2,5.00,000.00,029.6,029.2,000.0,037.8,031.5,010.2,0000.0,0009.34,0003.34,0001.97
2024-06-18 04:33:00,SystemResetWarning,0814.3,5.00,000.00,029.7,029.3,000.0,037.8,031.5,010.2,0000.0,0009.58,0003.33,0001.98
2024-06-18 04:34:00,SystemResetWarning,0814.3,5.00,000.00,029.7,029.4,000.0,037.8,031.6,010.1,0000.0,0009.34,0003.30,0001.99
2024-06-18 04:35:00,SystemResetWarning,0814.3,5.00,000.00,029.8,029.4,000.0,037.9,031.7,010.0,0000.0,0009.21,0003.31,0002.00
2024-06-18 04:36:00,SystemResetWarning,0814.4,5.00,000.00,029.9,029.5,000.0,037.9,031.7,010.1,0000.0,0009.48,0003.34,0002.01
2024-06-18 04:37:00,SystemResetWarning,0814.4,5.00,000.00,029.9,029.6,000.0,038.0,031.8,010.0,0000.0,0010.16,0003.34,0002.02
2024-06-18 04:38:00,SystemResetWarning,0814.5,5.00,000.00,030.0,029.6,000.0,038.0,031.8,010.0,0000.0,0010.11,0003.34,0002.02
2024-06-18 04:39:00,SystemResetWarning,0814.5,5.00,000.00,030.0,029.7,000.0,038.1,031.9,010.0,0000.0,0010.27,0003.35,0002.02
2024-06-18 04:40:00,SystemResetWarning,0814.5,4.99,000.00,029.9,028.1,000.0,038.1,031.1,009.9,0000.0,0010.60,0003.37,0002.03
2024-06-18 04:41:00,SystemResetWarning,0814.4,5.02,000.00,029.6,026.7,000.0,038.2,030.5,010.2,0000.0,0010.31,0003.40,0002.04
2024-06-18 04:42:00,SystemResetWarning,0814.5,5.00,000.00,029.4,027.0,000.0,038.1,030.5,010.3,0000.0,0010.47,0003.39,0002.05
2024-06-18 04:43:00,SystemResetWarning,0814.5,4.99,000.00,029.4,027.3,000.0,038.0,030.7,010.3,0000.0,0011.17,0003.37,0002.04
2024-06-18 04:44:00,SystemResetWarning,0814.6,5.00,000.00,029.5,027.7,000.0,038.0,030.9,010.3,0000.0,0011.15,0003.37,0002.04
2024-06-18 04:45:00,SystemResetWarning,0814.6,5.00,000.00,029.5,028.0,000.0,037.9,031.1,010.4,0000.0,0011.43,0003.39,0002.04
2024-06-18 04:46:00,SystemResetWarning,0814.6,5.01,000.00,029.5,028.3,000.0,037.9,031.2,010.4,0000.0,0011.54,0003.40,0002.04
2024-06-18 04:47:00,SystemResetWarning,0814.6,5.00,000.00,029.6,028.6,000.0,037.9,031.3,010.4,0000.0,0011.63,0003.41,0002.04
2024-06-18 04:48:00,SystemResetWarning,0814.6,4.99,000.00,029.6,028.8,000.0,037.9,031.4,010.3,0000.0,0010.77,0003.38,0002.03
2024-06-18 04:49:00,SystemResetWarning,0814.6,5.00,000.00,029.7,028.9,000.0,038.0,031.5,010.3,0000.0,0010.83,0003.38,0002.03
2024-06-18 04:50:00,SystemResetWarning,0814.7,5.00,000.00,029.8,029.1,000.0,038.0,031.6,010.2,0000.0,0011.00,0003.35,0002.03
2024-06-18 04:51:00,SystemResetWarning,0814.7,5.00,000.00,029.8,029.2,000.0,038.0,031.6,010.3,0000.0,0011.07,0003.32,0002.03
2024-06-18 04:52:00,SystemResetWarning,0814.7,5.01,000.00,029.9,029.3,000.0,038.0,031.7,010.3,0000.0,0010.62,0003.28,0002.02
2024-06-18 04:53:00,SystemResetWarning,0814.7,5.00,000.00,030.0,029.4,000.0,038.0,031.8,010.2,0000.0,0010.33,0003.24,0002.01
2024-06-18 04:54:00,SystemResetWarning,0814.7,4.98,000.00,030.0,029.5,000.0,038.1,031.9,010.2,0000.0,0010.13,0003.21,0002.01
2024-06-18 04:55:00,SystemResetWarning,0814.7,4.99,000.00,030.0,029.1,000.0,038.1,031.6,010.2,0000.0,0009.97,0003.24,0001.99
2024-06-18 04:56:00,SystemResetWarning,0814.6,5.01,000.00,029.7,026.9,000.0,038.2,030.5,010.4,0000.0,0009.65,0003.23,0001.98
2024-06-18 04:57:00,SystemResetWarning,0814.6,5.02,000.00,029.5,026.7,000.0,038.2,030.4,010.5,0000.0,0009.93,0003.23,0001.99
2024-06-18 04:58:00,SystemResetWarning,0814.6,4.99,000.00,029.4,027.1,000.0,038.1,030.6,010.6,0000.0,0009.60,0003.21,0002.00
2024-06-18 04:59:00,SystemResetWarning,0814.6,4.99,000.00,029.4,027.5,000.0,038.0,030.8,010.6,0000.0,0009.99,0003.20,0002.00
